Regional Weather Roundup
Issued by NWS

Home | Current Version | Previous Version | Text Only | Print | Product List | Glossary On
Versions: 1 2 3 4 5 6 7 8 9 10 11 12 13 14 15 16 17 18 19 20 21 22 23 24 25 26 27 28 29 30 31 32 33 34 35 36 37 38 39 40 41 42 43 44 45 46 47 48 49 50
000
ASUS44 KLUB 271310
RWRTX
WEST TEXAS WEATHER ROUNDUP
NATIONAL WEATHER SERVICE LUBBOCK TX
800 AM CDT THU APR 27 2017

NOTE: "FAIR" INDICATES FEW OR NO CLOUDS BELOW 12,000 FEET WITH NO
SIGNIFICANT WEATHER AND/OR OBSTRUCTIONS TO VISIBILITY.

TXZ004-006>008-010-012-014-016-OKZ002-271400-
TEXAS PANHANDLE/OKLAHOMA PANHANDLE

CITY           SKY/WX    TMP DP  RH WIND       PRES   REMARKS
AMARILLO       CLOUDY    49  36  61 S16       29.68S
BORGER         CLOUDY    54  35  48 S22G32    29.64S
CANADIAN       SUNNY     51  40  66 SW8       29.68R
DALHART        CLOUDY    48  39  71 S12       29.63F
DUMAS          CLOUDY    50  36  59 S21       29.63S
GUYMON         CLOUDY    46  39  76 S8        29.63S
HEREFORD       CLOUDY    50  40  69 S10G20    29.69R
PAMPA          PTSUNNY   51  39  63 S18       29.67R
PERRYTON       SUNNY     47  40  77 S8        29.66R
$$

TXZ026-029-035-045-048-271400-
SOUTHERN PANHANDLE/SOUTH PLAINS/ROLLING PLAINS

CITY           SKY/WX    TMP DP  RH WIND       PRES   REMARKS
CHILDRESS      CLOUDY    51  40  65 S13       29.73F
SEMINOLE       CLEAR     48  37  64 CALM      29.71S
LUBBOCK        CLOUDY    49  37  63 SE10      29.70F
PLAINVIEW      CLOUDY    46  38  74 S12       29.69F
SNYDER         SUNNY    N/A N/A N/A E10       29.73F
$$

TXZ052-054-060>062-072-078-127-140-154-169-271400-
PERMIAN BASIN/CONCHO VALLEY/BIG COUNTRY/EDWARDS PLATEAU

CITY           SKY/WX    TMP DP  RH WIND       PRES   REMARKS
ABILENE        CLOUDY    50  42  74 SE8       29.78R
BIG SPRING     SUNNY     56  37  48 S14       29.73R
BROWNWOOD      CLOUDY    48  46  93 CALM      29.80S
JUNCTION       SUNNY     49  40  71 CALM      29.79R
MIDLAND        SUNNY     60  33  36 S13       29.71R
ODESSA         SUNNY     62  32  32 S17G26    29.71R
SAN ANGELO     CLOUDY    52  39  61 CALM      29.75S
SONORA         SUNNY     55  39  54 S5        29.83R
SWEETWATER     CLOUDY    49  40  73 SE6       29.78R
WINK           CLOUDY    53  34  48 SE6       29.69R
$$

TXZ055-058-074-075-080-082-271400-
FAR WEST/SOUTHWEST MOUNTAINS/TRANS PECOS

CITY           SKY/WX    TMP DP  RH WIND       PRES   REMARKS
ALPINE         CLOUDY    61  28  28 W7        29.89R
DRYDEN           N/A     59  35  40 N5        29.77R
EL PASO        MOCLDY    63  22  20 SE8       29.77R
FORT STOCKTON  CLOUDY    63  31  30 S12       29.74R
GUADALUPE PASS CLOUDY    60  23  24 W37G47    29.77S
MARFA          CLOUDY    55  29  36 CALM      29.87R
PECOS          CLOUDY    61  28  29 SW6       29.71R
PRESIDIO       FAIR      64  25  22 N6        29.79R
$$

TXZ014-016-019-021>030-083-271400
TEXAS TECH WEST TEXAS MESONET/TEXAS PANHANDLE/NORTHERN SOUTH PLAINS

CITY           SKY/WX    TMP DP  RH WIND       PRES   REMARKS
ABERNATHY 5ENE   N/A     48  38  68 SE14      29.71F
AMARILLO 9NNE    N/A     50  35  57 S23       29.64F
AMARILLO 7SSE    N/A     49  35  59 S15       29.69S
AMHERST 1NE      N/A     47  36  64 SE12      29.70R
BOOTLEG 11WNW    N/A     44  34  67 S13       29.68F
CANADIAN 6E      N/A     50  38  65 SE7       29.68R
CAPROCK CYN SP   N/A     50  41  71 S12       29.71S
CHILDRESS 2NNE   N/A     52  40  65 S13       29.72S
CLARENDON 2WSW   N/A     50  37  61 S15       29.69S
CLAUDE 12SW      N/A     51  35  54 SE14      29.69S
DIMMITT 2NE      N/A     45  39  79 SE14      29.68S
FLOYDADA 2NNE    N/A     46  41  80 SE10      29.71F
FRIONA 2NE       N/A     45  37  73 SE15      29.68S
GOODLETT 3W      N/A     50  42  73 S5        29.72F
HART 3N          N/A     44  39  83 SE10      29.69F
HEREFORD 2NW     N/A     47  37  69 S12       29.68R
MCLEAN 1E        N/A     49  38  65 S14       29.69R
MEMPHIS 1NE      N/A     48  42  77 SE5       29.71F
MULESHOE 2SSW    N/A     41  37  88 SE3       29.69F
OLTON 6S         N/A     45  38  76 SE9       29.70R
PALO DURO SP     N/A     51  35  55 SE9       29.70S
PAMPA 2E         N/A     49  39  68 S15       29.68R
PLAINVIEW 1S     N/A     47  39  74 SE10      29.70S
SILVERTON 7ESE   N/A     52  37  58 S14       29.70F
TULIA 2ENE       N/A     46  41  83 SE10      29.69F
TURKEY 2WSW      N/A     50  42  74 S10       29.70F
UMBARGER 3NNE    N/A     49  37  64 S21       29.68S
$$

TXZ033>036-039>041-045>048-271400
TEXAS TECH WEST TEXAS MESONET/SOUTH PLAINS

CITY           SKY/WX    TMP DP  RH WIND       PRES   REMARKS
AIKEN 3WSW       N/A     47  40  74 SE15      29.71F
ANDREWS 2NE      N/A     56  33  41 S10       29.70S
ANTON 6SSW       N/A     48  37  65 SE9       29.70F
BROWNFIELD 2S    N/A     48  36  63 SE7       29.71S
DENVR CTY 7WNW   N/A     44  34  67 E2        29.70S
GAIL 2ESE        N/A     49  39  68 SE5       29.72R
LAMESA 2SE       N/A     49  37  65 E5        29.72R
LEVELLAND 4S     N/A     47  33  59 SE8       29.71S
LUBBOCK 3WNW     N/A     52  35  51 SE9       29.71S
MORTON 1ENE      N/A     46  33  59 SE7       29.70S
ODONNELL 1N      N/A     49  34  56 SE5       29.71F
PLAINS 3N        N/A     44  34  67 E2        29.71R
RALLS 1SE        N/A     49  36  59 SE12      29.72F
REESE CENTER     N/A     50  35  56 SE13      29.70F
SEAGRAVES 1SW    N/A     47  35  63 E1        29.71S
SEMINOLE 2NNE    N/A     46  34  62 SE1       29.70S
SLATON 2NE       N/A     47  38  69 SE7       29.71F
SNYDER 3E        N/A     52  41  65 SE9       29.73S
SUNDOWN 8SW      N/A     44  35  71 SE6       29.71S
TAHOKA 3NNE      N/A     47  37  68 E6        29.71F
WOLFFORTH 6SSW   N/A     48  34  58 SE9       29.71F
$$

TXZ031-032-036>038-042>044-271400-
TEXAS TECH WEST TEXAS MESONET/ROLLING PLAINS

CITY           SKY/WX    TMP DP  RH WIND       PRES   REMARKS
ASPERMONT 3NE    N/A     47  40  76 SW1       29.75S
FLUVANNA 3WNW    N/A     49  37  63 SE12      29.72S
GRAHAM 5SSW      N/A     47  37  67 SE8       29.72R
GUTHRIE 10WSW    N/A     47  40  76 S5        29.74R
HASKELL 1NW      N/A     51  40  64 SE6       29.75S
JAYTON 1SSE      N/A     50  39  66 SE6       29.75S
KNOX CITY 3NW    N/A     53  41  64 S5        29.76S
LK A HENRY 1NW   N/A     53  38  58 E6        29.73R
NORTHFIELD 1S    N/A     50  40  67 S10       29.72S
ODELL 4ENE       N/A     54  43  68 S7        29.75F
PADUCAH 10SW     N/A     48  41  76 S8        29.74S
POST 1NE         N/A     46  38  74 N2        29.72F
RRING SPRGS 3N   N/A     45  41  85 S8        29.72F
SEYMOUR 3NW      N/A     50  44  78 S5        29.76S
SPUR 1W          N/A     44  37  77 E1        29.73S
WEINERT 2NNE     N/A     51  41  67 S9        29.76S
WHITE RVR 6NE    N/A     50  37  61 E6        29.73S
$$

TXZ052-054-060>062-072-078-127-140-154-169-271400-
TEXAS TECH WEST TEXAS MESONET/PERMIAN BASIN/
CONCHO VALLEY/BIG COUNTRY/EDWARDS PLATEAU

CITY           SKY/WX    TMP DP  RH WIND       PRES   REMARKS
COYANOSA 2N      N/A     62  27  26 S6        29.72R
JUNCTION 1SSW    N/A     49  42  78 S3        29.82R
MERTZON 3NNE     N/A     56  39  53 S12       29.75F
SAN ANGELO 7NW   N/A     55  40  57 SE5       29.76R
STRLNG CT 4WSW   N/A     56  38  50 SE10      29.73F
ST LAWRNCE 5SW   N/A     60  36  41 S17       29.72R
SWEETWATR 11SW   N/A     54  40  58 SE8       29.76R
WALL 1E          N/A     58  40  52 E3        29.77S
$$

TXZ055-058-074-075-080-082-271400-
TEXAS TECH WEST TEXAS MESONET/FAR WEST/SOUTHWEST MOUNTAINS/TRANS PECOS

CITY           SKY/WX    TMP DP  RH WIND       PRES   REMARKS
PRSMN GAP BBNP   N/A     61  32  34 CALM      29.80S
GUADLPE MTN NP   N/A     63  21  20 W26       29.80R
$$




USA.gov is the U.S. government's official web portal to all federal, state and local government web resources and services.